Weather in Boracay

Philippines     11°57′02″N   121°56′04″E
temp.,
°C
wind,
m/s
gust,
m/s
humid.,
%
clouds,
%
prec.,
mm/h
press.,
hPa
HPBL,
m
7 may, fri
fri723:00+29e798018 0.6 1011753
02:00+28ene81181100 1.9 1010907
05:00+28e10128026 1.8 1010989
08:00+28e910789 2.4 1012982
11:00+29e8107717 0.0 1011976
14:00+29e697540 0.0 1008892
17:00+29e35765 0.0 1008428
20:00+29ese23785 0.0 1009219
8 may, sat
sat823:00+29e367820 0.1 1010380
02:00+28ene567833 0.4 1008640
05:00+28ese7979100 0.2 1008786
08:00+28ene577589 0.3 1010875
11:00+29e6775100 0.0 1009746
14:00+29e4576100 0.0 1008539
17:00+28ese2375100 0.2 1008238
20:00+29e457766 0.3 1009396
9 may, sun
sun923:00+29e478056 0.0 1010804
02:00+28e6777100 0.1 1008758
05:00+28ese667995 0.1 1009660
08:00+28e67775 0.2 1010881
11:00+28e667612 0.2 1010724
14:00+28e4574100 0.2 1007513
17:00+29e467340 0.0 1007506
20:00+29e467485 0.0 1008480
10 may, mon
mon1023:00+28ese467664 0.1 1009620
02:00+28ese45805 0.6 1008466
05:00+28ese567624 0.6 1008817
08:00+28e6776100 0.6 1009836
11:00+29e56735 0.0 1009715
14:00+29ene45715 0.0 1007590
17:00+29e34724 0.0 1007342
20:00+28se33755 0.2 1009187
11 may, tue
tue1123:00+28ese44755 0.6 1009442
02:00+28e4580100 3.7 1008334
05:00+27ese4582100 4.9 1008254
08:00+29e5674100 5.8 1010768
11:00+29e5674100 0.3 1009725
14:00+29e5673100 0.3 1007546
17:00+29e457375 0.0 1007460
20:00+29ese33748 0.0 1008297